AUA439 LOWW-LEBB

Flight info

Callsign AUA439
Flight time 2h 15m
Altitude 36000
Route SOVI1C SOVIL DCT SITNI DCT BAGSI DCT MATIG DCT TRAUN L856 TRA Z69 OLBEN N869 NINTU DCT MEBAK DCT REPSI DCT LERGA DCT MINSO DCT NARAK DCT AGN DCT PIPOR L866 PPN M601 CEGAM CEGA3Q
Aircraft A320/M-SDE3FGHIRWY/LB1

Departure

Time 2026-04-26 14:55
Airport Vienna International Airport (LOWW)

Arrival

Time 2026-04-26 17:11
Airport Bilbao Airport (LEBB)
Time Latitude Longitude Altitude Speed Heading
2026-04-26 14:30 48.11931 16.56653 599 ft 0 kts 211°
2026-04-26 14:44 48.11932 16.56654 598 ft 2 kts 211°
2026-04-26 14:44 48.11954 16.56674 597 ft 4 kts 208°
2026-04-26 14:45 48.11978 16.56693 596 ft 4 kts 207°
2026-04-26 14:45 48.11994 16.56705 596 ft 4 kts 207°
2026-04-26 14:45 48.12020 16.56724 595 ft 0 kts 206°
2026-04-26 14:49 48.12003 16.56722 595 ft 4 kts 173°
2026-04-26 14:49 48.11979 16.56759 596 ft 6 kts 117°
2026-04-26 14:49 48.11962 16.56814 597 ft 7 kts 115°
2026-04-26 14:49 48.11936 16.56897 599 ft 11 kts 116°
2026-04-26 14:50 48.11901 16.57001 600 ft 11 kts 116°
2026-04-26 14:50 48.11869 16.57099 601 ft 10 kts 116°
2026-04-26 14:50 48.11855 16.57194 602 ft 10 kts 93°
2026-04-26 14:50 48.11828 16.57296 603 ft 10 kts 115°
2026-04-26 14:51 48.11779 16.57356 603 ft 11 kts 161°
2026-04-26 14:51 48.11689 16.57395 611 ft 14 kts 164°
2026-04-26 14:51 48.11602 16.57432 611 ft 12 kts 163°
2026-04-26 14:51 48.11517 16.57462 610 ft 12 kts 179°
2026-04-26 14:52 48.11449 16.57429 623 ft 9 kts 205°
2026-04-26 14:52 48.11385 16.57383 624 ft 11 kts 206°
2026-04-26 14:52 48.11314 16.57331 618 ft 13 kts 206°
2026-04-26 14:52 48.11242 16.57282 627 ft 7 kts 192°
2026-04-26 14:53 48.11188 16.57339 622 ft 15 kts 116°
2026-04-26 14:53 48.11142 16.57482 625 ft 15 kts 116°
2026-04-26 14:53 48.11102 16.57604 620 ft 11 kts 116°
2026-04-26 14:53 48.11058 16.57652 616 ft 9 kts 179°
2026-04-26 14:54 48.11001 16.57616 618 ft 8 kts 205°
2026-04-26 14:54 48.10953 16.57582 622 ft 9 kts 206°
2026-04-26 14:54 48.10925 16.57509 625 ft 8 kts 278°
2026-04-26 14:54 48.10947 16.57434 629 ft 9 kts 295°
2026-04-26 14:55 48.11045 16.57138 630 ft 66 kts 296°
2026-04-26 14:55 48.11340 16.56233 619 ft 126 kts 296°
2026-04-26 14:55 48.11791 16.54846 758 ft 158 kts 302°
2026-04-26 14:55 48.12209 16.53311 1366 ft 164 kts 282°
2026-04-26 14:56 48.12034 16.51572 1982 ft 180 kts 254°
2026-04-26 14:56 48.11438 16.49789 2265 ft 203 kts 245°
2026-04-26 14:56 48.10699 16.47819 2468 ft 232 kts 244°
2026-04-26 14:56 48.09854 16.45603 2875 ft 257 kts 241°
2026-04-26 14:57 48.08811 16.43351 3596 ft 269 kts 237°
2026-04-26 14:57 48.07671 16.41105 4517 ft 270 kts 237°
2026-04-26 14:57 48.06540 16.38930 5521 ft 268 kts 238°
2026-04-26 14:57 48.05406 16.36731 6515 ft 265 kts 238°
2026-04-26 14:58 48.04317 16.34532 7457 ft 263 kts 243°
2026-04-26 14:58 48.03565 16.32062 8220 ft 262 kts 258°
2026-04-26 14:58 48.03306 16.29379 8981 ft 261 kts 274°
2026-04-26 14:58 48.03365 16.26651 9760 ft 265 kts 275°
2026-04-26 14:59 48.03425 16.23875 10463 ft 272 kts 275°
2026-04-26 14:59 48.03487 16.20943 10700 ft 295 kts 275°
2026-04-26 14:59 48.03550 16.17754 10873 ft 318 kts 275°
2026-04-26 14:59 48.03591 16.15527 11126 ft 327 kts 274°
2026-04-26 15:00 48.03668 16.10927 11957 ft 334 kts 274°
2026-04-26 15:00 48.03722 16.07438 12656 ft 337 kts 274°
2026-04-26 15:00 48.03777 16.03910 13327 ft 341 kts 275°
2026-04-26 15:00 48.03833 16.00344 13989 ft 345 kts 275°
2026-04-26 15:01 48.03888 15.96745 14578 ft 349 kts 275°
2026-04-26 15:01 48.03943 15.93101 15144 ft 353 kts 275°
2026-04-26 15:01 48.03999 15.89414 15681 ft 357 kts 274°
2026-04-26 15:01 48.04055 15.85687 16236 ft 361 kts 274°
2026-04-26 15:02 48.04111 15.81915 16796 ft 365 kts 274°
2026-04-26 15:02 48.04163 15.78102 17345 ft 369 kts 274°
2026-04-26 15:02 48.04209 15.74249 17889 ft 373 kts 274°
2026-04-26 15:02 48.04255 15.70402 18431 ft 377 kts 274°
2026-04-26 15:03 48.04307 15.66411 18941 ft 381 kts 274°
2026-04-26 15:03 48.04358 15.62498 19479 ft 383 kts 274°
2026-04-26 15:03 48.04408 15.58457 20026 ft 385 kts 274°
2026-04-26 15:03 48.04456 15.54498 20575 ft 387 kts 274°
2026-04-26 15:04 48.04503 15.50471 21122 ft 389 kts 273°
2026-04-26 15:04 48.04550 15.46422 21635 ft 391 kts 273°
2026-04-26 15:04 48.04595 15.42349 22143 ft 392 kts 272°
2026-04-26 15:04 48.04636 15.38264 22629 ft 394 kts 272°
2026-04-26 15:05 48.04683 15.34153 23063 ft 398 kts 273°
2026-04-26 15:05 48.04725 15.31353 23341 ft 400 kts 273°
2026-04-26 15:05 48.04818 15.25819 23869 ft 403 kts 273°
2026-04-26 15:05 48.04890 15.21614 24238 ft 406 kts 273°
2026-04-26 15:06 48.04959 15.17398 24604 ft 407 kts 273°
2026-04-26 15:06 48.05026 15.13156 24962 ft 409 kts 273°
2026-04-26 15:06 48.05092 15.08904 25315 ft 410 kts 273°
2026-04-26 15:06 48.05155 15.04626 25657 ft 412 kts 273°
2026-04-26 15:07 48.05272 14.96021 26345 ft 416 kts 273°
2026-04-26 15:07 48.05327 14.91694 26676 ft 417 kts 272°
2026-04-26 15:07 48.05378 14.87353 27004 ft 419 kts 272°
2026-04-26 15:08 48.05428 14.82992 27322 ft 420 kts 272°
2026-04-26 15:08 48.05474 14.78608 27633 ft 422 kts 272°
2026-04-26 15:08 48.05512 14.74216 27938 ft 423 kts 272°
2026-04-26 15:08 48.05547 14.69812 28234 ft 425 kts 272°
2026-04-26 15:09 48.05581 14.65389 28514 ft 426 kts 272°
2026-04-26 15:09 48.05614 14.60947 28787 ft 427 kts 272°
2026-04-26 15:09 48.05645 14.56503 29072 ft 428 kts 272°
2026-04-26 15:09 48.05673 14.52042 29337 ft 429 kts 272°
2026-04-26 15:10 48.05699 14.47579 29588 ft 431 kts 272°
2026-04-26 15:10 48.05717 14.44546 29752 ft 431 kts 272°
2026-04-26 15:10 48.05748 14.38614 30162 ft 430 kts 272°
2026-04-26 15:10 48.05768 14.34143 30469 ft 429 kts 272°
2026-04-26 15:11 48.05787 14.29694 30759 ft 428 kts 272°
2026-04-26 15:11 48.05803 14.25244 31025 ft 427 kts 272°
2026-04-26 15:11 48.05820 14.20805 31297 ft 427 kts 271°
2026-04-26 15:11 48.05834 14.16375 31569 ft 426 kts 271°
2026-04-26 15:12 48.05846 14.11964 31885 ft 424 kts 271°
2026-04-26 15:12 48.05855 14.07561 32177 ft 423 kts 271°
2026-04-26 15:12 48.05862 14.03174 32452 ft 422 kts 271°
2026-04-26 15:12 48.05871 13.98800 32726 ft 421 kts 271°
2026-04-26 15:13 48.05879 13.94428 33000 ft 420 kts 271°
2026-04-26 15:13 48.05887 13.90068 33275 ft 419 kts 271°
2026-04-26 15:13 48.05892 13.85708 33542 ft 419 kts 270°
2026-04-26 15:13 48.05892 13.81354 33810 ft 418 kts 270°
2026-04-26 15:14 48.05888 13.77013 34077 ft 418 kts 270°
2026-04-26 15:14 48.05885 13.72678 34320 ft 417 kts 270°
2026-04-26 15:14 48.05877 13.68346 34558 ft 416 kts 270°
2026-04-26 15:14 48.05871 13.64030 34771 ft 416 kts 270°
2026-04-26 15:15 48.05866 13.59703 34981 ft 416 kts 270°
2026-04-26 15:15 48.05858 13.55389 35181 ft 416 kts 269°
2026-04-26 15:15 48.05613 13.51087 35369 ft 416 kts 263°
2026-04-26 15:15 48.05260 13.46853 35554 ft 416 kts 263°
2026-04-26 15:16 48.04898 13.42565 35736 ft 416 kts 263°
2026-04-26 15:16 48.04531 13.38276 35908 ft 416 kts 263°
2026-04-26 15:16 48.04160 13.33993 36087 ft 415 kts 263°
2026-04-26 15:16 48.03789 13.29707 36185 ft 416 kts 263°
2026-04-26 15:17 48.03167 13.22511 36198 ft 417 kts 263°
2026-04-26 15:17 48.02300 13.12525 36200 ft 417 kts 263°
2026-04-26 15:18 48.01547 13.03936 36198 ft 417 kts 263°
2026-04-26 15:18 48.00782 12.95342 36195 ft 417 kts 263°
2026-04-26 15:19 48.00017 12.86753 36195 ft 417 kts 263°
2026-04-26 15:19 47.99246 12.78160 36196 ft 417 kts 263°
2026-04-26 15:20 47.98477 12.69641 36202 ft 417 kts 263°
2026-04-26 15:20 47.97687 12.61055 36201 ft 417 kts 263°
2026-04-26 15:21 47.96896 12.52492 36199 ft 416 kts 263°
2026-04-26 15:21 47.96105 12.43920 36181 ft 417 kts 263°
2026-04-26 15:22 47.95307 12.35346 36186 ft 417 kts 263°
2026-04-26 15:22 47.94501 12.26785 36189 ft 417 kts 263°
2026-04-26 15:23 47.93700 12.18281 36193 ft 417 kts 263°
2026-04-26 15:23 47.92876 12.09719 36195 ft 417 kts 262°
2026-04-26 15:24 47.92035 12.01164 36190 ft 417 kts 262°
2026-04-26 15:24 47.91196 11.92599 36193 ft 417 kts 262°
2026-04-26 15:25 47.90483 11.85432 36192 ft 417 kts 262°
2026-04-26 15:25 47.89485 11.75494 36192 ft 417 kts 262°
2026-04-26 15:26 47.88638 11.66947 36192 ft 416 kts 262°
2026-04-26 15:26 47.87788 11.58413 36194 ft 417 kts 262°
2026-04-26 15:27 47.86924 11.49878 36205 ft 417 kts 262°
2026-04-26 15:27 47.86053 11.41345 36194 ft 417 kts 262°
2026-04-26 15:28 47.85173 11.32809 36206 ft 417 kts 262°
2026-04-26 15:28 47.84298 11.24347 36204 ft 417 kts 262°
2026-04-26 15:29 47.83406 11.15819 36215 ft 416 kts 262°
2026-04-26 15:30 47.81613 10.98790 36223 ft 416 kts 262°
2026-04-26 15:30 47.80850 10.91722 36209 ft 417 kts 262°
2026-04-26 15:31 47.79458 10.78959 36213 ft 417 kts 262°
2026-04-26 15:32 47.78222 10.67578 36214 ft 417 kts 262°
2026-04-26 15:32 47.77130 10.57691 36212 ft 417 kts 261°
2026-04-26 15:33 47.76177 10.49194 36207 ft 417 kts 261°
2026-04-26 15:33 47.75221 10.40687 36202 ft 417 kts 261°
2026-04-26 15:34 47.74514 10.32150 36201 ft 416 kts 269°
2026-04-26 15:34 47.74337 10.23558 36198 ft 416 kts 268°
2026-04-26 15:35 47.74148 10.14961 36200 ft 416 kts 268°
2026-04-26 15:35 47.73942 10.06367 36189 ft 417 kts 268°
2026-04-26 15:36 47.73726 9.97813 36188 ft 417 kts 268°
2026-04-26 15:36 47.73509 9.89196 36183 ft 417 kts 268°
2026-04-26 15:37 47.73292 9.80574 36183 ft 418 kts 268°
2026-04-26 15:37 47.73061 9.71950 36181 ft 418 kts 268°
2026-04-26 15:38 47.72823 9.63319 36171 ft 419 kts 268°
2026-04-26 15:38 47.72578 9.54668 36170 ft 419 kts 268°
2026-04-26 15:39 47.72326 9.46011 36172 ft 420 kts 268°
2026-04-26 15:39 47.72111 9.38803 36173 ft 420 kts 268°
2026-04-26 15:40 47.71835 9.28669 36169 ft 420 kts 268°
2026-04-26 15:40 47.71602 9.20040 36167 ft 421 kts 268°
2026-04-26 15:41 47.71340 9.11352 36167 ft 422 kts 268°
2026-04-26 15:41 47.71048 9.02590 36171 ft 422 kts 268°
2026-04-26 15:42 47.70759 8.93885 36175 ft 422 kts 268°
2026-04-26 15:42 47.70468 8.85169 36167 ft 423 kts 268°
2026-04-26 15:43 47.70165 8.76452 36174 ft 423 kts 268°
2026-04-26 15:44 47.69690 8.63360 36179 ft 424 kts 268°
2026-04-26 15:44 47.69190 8.50322 36170 ft 424 kts 265°
2026-04-26 15:45 47.67727 8.41842 36441 ft 428 kts 247°
2026-04-26 15:45 47.66249 8.37933 36568 ft 432 kts 238°
2026-04-26 15:46 47.62822 8.30675 36828 ft 433 kts 237°
2026-04-26 15:46 47.61089 8.27022 36980 ft 433 kts 237°
2026-04-26 15:46 47.59358 8.23366 37154 ft 433 kts 237°
2026-04-26 15:46 47.58191 8.20900 37179 ft 433 kts 237°
2026-04-26 15:47 47.52439 8.08767 37178 ft 433 kts 237°
2026-04-26 15:48 47.48976 8.01480 37171 ft 433 kts 237°
2026-04-26 15:48 47.45504 7.94215 37170 ft 433 kts 237°
2026-04-26 15:49 47.42023 7.86961 37168 ft 433 kts 237°
2026-04-26 15:49 47.38554 7.79755 37165 ft 433 kts 237°
2026-04-26 15:50 47.35068 7.72517 37162 ft 433 kts 237°
2026-04-26 15:50 47.31573 7.65284 37155 ft 433 kts 237°
2026-04-26 15:51 47.27995 7.58136 37158 ft 434 kts 234°
2026-04-26 15:51 47.24219 7.51197 37158 ft 434 kts 233°
2026-04-26 15:52 47.20430 7.44341 37162 ft 434 kts 234°
2026-04-26 15:52 47.16658 7.37395 37158 ft 435 kts 234°
2026-04-26 15:53 47.12898 7.30416 37153 ft 435 kts 234°
2026-04-26 15:53 47.09132 7.23449 37155 ft 436 kts 234°
2026-04-26 15:54 47.05339 7.16490 37169 ft 436 kts 234°
2026-04-26 15:54 47.01569 7.09577 37162 ft 436 kts 234°
2026-04-26 15:55 46.97778 7.02648 37165 ft 436 kts 234°
2026-04-26 15:55 46.93976 6.95727 37156 ft 436 kts 234°
2026-04-26 15:56 46.90169 6.88807 37152 ft 437 kts 234°
2026-04-26 15:56 46.86352 6.81871 37155 ft 438 kts 234°
2026-04-26 15:57 46.82525 6.74934 37158 ft 438 kts 233°
2026-04-26 15:57 46.78708 6.68054 37163 ft 439 kts 233°
2026-04-26 15:58 46.74860 6.61134 37159 ft 438 kts 233°
2026-04-26 15:58 46.70992 6.54265 37158 ft 438 kts 232°
2026-04-26 15:59 46.66957 6.47599 37149 ft 439 kts 230°
2026-04-26 15:59 46.62853 6.40982 37138 ft 440 kts 230°
2026-04-26 16:00 46.58761 6.34326 37137 ft 441 kts 231°
2026-04-26 16:00 46.54710 6.27689 37136 ft 441 kts 231°
2026-04-26 16:01 46.50625 6.20994 37143 ft 442 kts 231°
2026-04-26 16:01 46.46552 6.14365 37141 ft 442 kts 231°
2026-04-26 16:02 46.42448 6.07702 37144 ft 442 kts 231°
2026-04-26 16:02 46.38367 6.01087 37128 ft 442 kts 231°
2026-04-26 16:03 46.34263 5.94442 37123 ft 443 kts 231°
2026-04-26 16:03 46.30177 5.87731 37124 ft 443 kts 235°
2026-04-26 16:04 46.26676 5.80405 37130 ft 442 kts 238°
2026-04-26 16:04 46.23223 5.73120 37132 ft 442 kts 238°
2026-04-26 16:05 46.19739 5.65800 37137 ft 442 kts 238°
2026-04-26 16:05 46.16247 5.58482 37137 ft 443 kts 238°
2026-04-26 16:06 46.12751 5.51164 37129 ft 444 kts 238°
2026-04-26 16:06 46.09235 5.43840 37123 ft 445 kts 238°
2026-04-26 16:07 46.05709 5.36509 37124 ft 445 kts 238°
2026-04-26 16:07 46.02187 5.29187 37126 ft 445 kts 237°
2026-04-26 16:08 45.98655 5.21875 37132 ft 445 kts 237°
2026-04-26 16:08 45.95143 5.14634 37127 ft 445 kts 237°
2026-04-26 16:09 45.91582 5.07291 37114 ft 446 kts 237°
2026-04-26 16:09 45.88046 5.00034 37119 ft 447 kts 237°
2026-04-26 16:10 45.84472 4.92720 37117 ft 447 kts 237°
2026-04-26 16:10 45.80896 4.85416 37124 ft 448 kts 237°
2026-04-26 16:11 45.77314 4.78110 37132 ft 448 kts 237°
2026-04-26 16:11 45.73729 4.70817 37125 ft 448 kts 237°
2026-04-26 16:12 45.70129 4.63526 37124 ft 449 kts 237°
2026-04-26 16:12 45.64715 4.52565 37144 ft 451 kts 237°
2026-04-26 16:13 45.61087 4.45243 37161 ft 451 kts 237°
2026-04-26 16:13 45.57474 4.37988 37172 ft 451 kts 237°
2026-04-26 16:14 45.53821 4.30688 37173 ft 452 kts 237°
2026-04-26 16:15 45.48355 4.19737 37158 ft 452 kts 237°
2026-04-26 16:15 45.44694 4.12451 37161 ft 452 kts 237°
2026-04-26 16:16 45.39186 4.01543 37162 ft 452 kts 237°
2026-04-26 16:16 45.35511 3.94281 37164 ft 452 kts 237°
2026-04-26 16:17 45.31832 3.87011 37171 ft 453 kts 236°
2026-04-26 16:17 45.28147 3.79763 37172 ft 453 kts 236°
2026-04-26 16:18 45.23255 3.70102 37153 ft 452 kts 237°
2026-04-26 16:19 45.17879 3.59101 37154 ft 452 kts 238°
2026-04-26 16:20 45.12484 3.48131 37161 ft 452 kts 237°
2026-04-26 16:20 45.07078 3.37269 37164 ft 452 kts 237°
2026-04-26 16:21 45.03450 3.29998 37167 ft 452 kts 237°
2026-04-26 16:21 44.99832 3.22745 37165 ft 451 kts 237°
2026-04-26 16:22 44.96208 3.15493 37168 ft 451 kts 237°
2026-04-26 16:22 44.92573 3.08274 37172 ft 451 kts 237°
2026-04-26 16:23 44.88945 3.01062 37163 ft 451 kts 237°
2026-04-26 16:23 44.85331 2.93902 37164 ft 451 kts 237°
2026-04-26 16:24 44.81804 2.86609 37164 ft 450 kts 239°
2026-04-26 16:24 44.78450 2.79172 37165 ft 450 kts 240°
2026-04-26 16:25 44.75096 2.71736 37164 ft 450 kts 239°
2026-04-26 16:25 44.71685 2.64354 37148 ft 450 kts 239°
2026-04-26 16:26 44.68252 2.56997 37149 ft 450 kts 239°
2026-04-26 16:26 44.64820 2.49643 37151 ft 450 kts 239°
2026-04-26 16:27 44.61381 2.42289 37157 ft 450 kts 239°
2026-04-26 16:27 44.57945 2.34939 37154 ft 450 kts 239°
2026-04-26 16:28 44.54535 2.27653 37139 ft 450 kts 239°
2026-04-26 16:28 44.51093 2.20337 37141 ft 449 kts 239°
2026-04-26 16:29 44.47649 2.13022 37146 ft 449 kts 239°
2026-04-26 16:29 44.44197 2.05720 37141 ft 449 kts 239°
2026-04-26 16:30 44.40745 1.98430 37131 ft 449 kts 239°
2026-04-26 16:30 44.37292 1.91158 37136 ft 449 kts 238°
2026-04-26 16:31 44.33833 1.83898 37123 ft 448 kts 238°
2026-04-26 16:31 44.30369 1.76655 37125 ft 448 kts 238°
2026-04-26 16:32 44.27510 1.70614 37119 ft 448 kts 239°
2026-04-26 16:32 44.23619 1.62095 37131 ft 448 kts 240°
2026-04-26 16:33 44.20283 1.54755 37130 ft 448 kts 239°
2026-04-26 16:33 44.16919 1.47452 37125 ft 448 kts 239°
2026-04-26 16:34 44.13536 1.40166 37129 ft 448 kts 239°
2026-04-26 16:34 44.10145 1.32883 37132 ft 448 kts 239°
2026-04-26 16:35 44.06758 1.25594 37131 ft 448 kts 239°
2026-04-26 16:35 44.03374 1.18315 37134 ft 448 kts 239°
2026-04-26 16:36 43.99979 1.11044 37123 ft 448 kts 238°
2026-04-26 16:36 43.96577 1.03782 37132 ft 448 kts 238°
2026-04-26 16:37 43.93169 0.96537 37133 ft 448 kts 238°
2026-04-26 16:37 43.90322 0.90525 37144 ft 448 kts 238°
2026-04-26 16:38 43.86429 0.82063 37144 ft 448 kts 240°
2026-04-26 16:38 43.83279 0.74617 37135 ft 448 kts 242°
2026-04-26 16:39 43.80154 0.67168 37140 ft 448 kts 241°
2026-04-26 16:39 43.76967 0.59756 37149 ft 448 kts 240°
2026-04-26 16:40 43.73753 0.52376 37152 ft 448 kts 240°
2026-04-26 16:40 43.70536 0.44991 37156 ft 448 kts 240°
2026-04-26 16:41 43.67326 0.37612 37147 ft 448 kts 240°
2026-04-26 16:41 43.64102 0.30233 37160 ft 448 kts 240°
2026-04-26 16:42 43.60879 0.22875 37156 ft 448 kts 240°
2026-04-26 16:42 43.57655 0.15515 37165 ft 448 kts 240°
2026-04-26 16:43 43.54435 0.08223 37168 ft 448 kts 239°
2026-04-26 16:43 43.51199 0.00893 37168 ft 448 kts 240°
2026-04-26 16:44 43.47969 -0.06428 37174 ft 447 kts 240°
2026-04-26 16:44 43.44734 -0.13735 36961 ft 446 kts 239°
2026-04-26 16:45 43.43113 -0.17378 36690 ft 446 kts 239°
2026-04-26 16:45 43.41492 -0.21017 36429 ft 447 kts 239°
2026-04-26 16:45 43.39865 -0.24667 36174 ft 448 kts 239°
2026-04-26 16:45 43.38237 -0.28322 35919 ft 448 kts 239°
2026-04-26 16:46 43.36608 -0.31977 35668 ft 449 kts 239°
2026-04-26 16:46 43.34970 -0.35644 35419 ft 450 kts 239°
2026-04-26 16:46 43.33330 -0.39307 35171 ft 451 kts 239°
2026-04-26 16:46 43.31686 -0.42978 34919 ft 451 kts 239°
2026-04-26 16:47 43.30038 -0.46657 34685 ft 452 kts 239°
2026-04-26 16:47 43.28388 -0.50333 34445 ft 452 kts 239°
2026-04-26 16:47 43.26734 -0.54008 34207 ft 452 kts 239°
2026-04-26 16:47 43.25101 -0.57625 33943 ft 451 kts 239°
2026-04-26 16:48 43.23456 -0.61268 33665 ft 449 kts 239°
2026-04-26 16:48 43.21815 -0.64899 33390 ft 448 kts 238°
2026-04-26 16:48 43.20177 -0.68523 33122 ft 446 kts 239°
2026-04-26 16:48 43.18548 -0.72126 32859 ft 444 kts 238°
2026-04-26 16:49 43.16919 -0.75725 32598 ft 443 kts 239°
2026-04-26 16:49 43.15300 -0.79302 32335 ft 441 kts 239°
2026-04-26 16:49 43.13684 -0.82865 32076 ft 439 kts 239°
2026-04-26 16:49 43.12075 -0.86407 31713 ft 436 kts 239°
2026-04-26 16:50 43.10472 -0.89923 31139 ft 433 kts 239°
2026-04-26 16:50 43.08881 -0.93405 30572 ft 430 kts 239°
2026-04-26 16:50 43.07320 -0.96824 29994 ft 428 kts 240°
2026-04-26 16:50 43.05749 -1.00263 29424 ft 424 kts 238°
2026-04-26 16:51 43.04190 -1.03663 28888 ft 420 kts 239°
2026-04-26 16:51 43.02644 -1.07032 28352 ft 416 kts 238°
2026-04-26 16:51 43.01236 -1.10457 27816 ft 412 kts 246°
2026-04-26 16:51 43.00273 -1.14123 27296 ft 408 kts 256°
2026-04-26 16:52 42.99562 -1.17850 26796 ft 405 kts 256°
2026-04-26 16:52 42.99091 -1.20307 26457 ft 403 kts 256°
2026-04-26 16:52 42.98133 -1.25237 25818 ft 399 kts 255°
2026-04-26 16:52 42.97416 -1.28889 25341 ft 397 kts 255°
2026-04-26 16:53 42.96701 -1.32523 24877 ft 395 kts 255°
2026-04-26 16:53 42.95992 -1.36134 24407 ft 393 kts 255°
2026-04-26 16:53 42.95283 -1.39732 23931 ft 391 kts 255°
2026-04-26 16:53 42.94576 -1.43316 23413 ft 390 kts 255°
2026-04-26 16:54 42.93883 -1.46825 22940 ft 386 kts 255°
2026-04-26 16:54 42.93186 -1.50353 22465 ft 383 kts 255°
2026-04-26 16:54 42.92493 -1.53848 21976 ft 381 kts 255°
2026-04-26 16:54 42.91802 -1.57330 21494 ft 379 kts 255°
2026-04-26 16:55 42.91118 -1.60787 21007 ft 377 kts 255°
2026-04-26 16:55 42.90438 -1.64226 20527 ft 375 kts 255°
2026-04-26 16:55 42.89760 -1.67648 20042 ft 373 kts 255°
2026-04-26 16:55 42.89083 -1.71056 19558 ft 372 kts 255°
2026-04-26 16:56 42.87728 -1.77839 18566 ft 369 kts 255°
2026-04-26 16:56 42.87048 -1.81215 18050 ft 368 kts 255°
2026-04-26 16:56 42.86374 -1.84564 17578 ft 365 kts 255°
2026-04-26 16:57 42.85705 -1.87891 17140 ft 363 kts 255°
2026-04-26 16:57 42.85323 -1.91265 16682 ft 360 kts 268°
2026-04-26 16:57 42.86398 -1.97816 15774 ft 356 kts 297°
2026-04-26 16:58 42.87669 -2.00651 15335 ft 354 kts 302°
2026-04-26 16:58 42.88567 -2.02558 15016 ft 353 kts 302°
2026-04-26 16:58 42.91630 -2.09102 13964 ft 350 kts 302°
2026-04-26 16:59 42.92935 -2.11904 13473 ft 348 kts 302°
2026-04-26 16:59 42.95507 -2.17447 12542 ft 342 kts 302°
2026-04-26 17:00 42.98040 -2.22886 11607 ft 337 kts 304°
2026-04-26 17:00 43.01148 -2.27604 10766 ft 329 kts 313°
2026-04-26 17:00 43.02726 -2.29849 10345 ft 325 kts 313°
2026-04-26 17:01 43.04259 -2.32031 10226 ft 311 kts 313°
2026-04-26 17:01 43.05725 -2.34126 10100 ft 296 kts 312°
2026-04-26 17:01 43.07110 -2.36108 9633 ft 284 kts 312°
2026-04-26 17:01 43.08445 -2.38024 8958 ft 281 kts 313°
2026-04-26 17:02 43.09792 -2.39956 8236 ft 281 kts 313°
2026-04-26 17:02 43.11170 -2.41934 7521 ft 292 kts 314°
2026-04-26 17:02 43.12530 -2.43940 7201 ft 278 kts 308°
2026-04-26 17:02 43.13522 -2.46085 7059 ft 257 kts 297°
2026-04-26 17:03 43.14284 -2.48198 6949 ft 240 kts 297°
2026-04-26 17:03 43.15013 -2.50206 6847 ft 230 kts 297°
2026-04-26 17:03 43.15722 -2.52118 6756 ft 220 kts 297°
2026-04-26 17:03 43.16407 -2.53960 6597 ft 214 kts 297°
2026-04-26 17:04 43.17077 -2.55760 6278 ft 210 kts 298°
2026-04-26 17:04 43.17731 -2.57523 5963 ft 205 kts 298°
2026-04-26 17:04 43.18358 -2.59212 5669 ft 199 kts 298°
2026-04-26 17:04 43.18981 -2.60890 5372 ft 195 kts 299°
2026-04-26 17:05 43.19601 -2.62563 5086 ft 194 kts 300°
2026-04-26 17:05 43.20203 -2.64187 4792 ft 193 kts 298°
2026-04-26 17:05 43.20804 -2.65810 4505 ft 189 kts 298°
2026-04-26 17:05 43.21395 -2.67408 4210 ft 187 kts 298°
2026-04-26 17:06 43.21970 -2.68961 3962 ft 180 kts 300°
2026-04-26 17:06 43.22538 -2.70498 3679 ft 180 kts 300°
2026-04-26 17:06 43.23101 -2.72023 3411 ft 177 kts 300°
2026-04-26 17:06 43.23650 -2.73509 3143 ft 172 kts 299°
2026-04-26 17:07 43.24178 -2.74940 2906 ft 165 kts 299°
2026-04-26 17:07 43.24690 -2.76327 2655 ft 159 kts 299°
2026-04-26 17:07 43.25181 -2.77660 2422 ft 154 kts 300°
2026-04-26 17:07 43.25661 -2.78962 2195 ft 151 kts 300°
2026-04-26 17:08 43.26124 -2.80217 1969 ft 145 kts 301°
2026-04-26 17:08 43.26570 -2.81428 1746 ft 141 kts 298°
2026-04-26 17:08 43.27003 -2.82609 1526 ft 136 kts 297°
2026-04-26 17:08 43.27415 -2.83743 1346 ft 133 kts 295°
2026-04-26 17:09 43.27837 -2.84872 1110 ft 133 kts 296°
2026-04-26 17:09 43.27985 -2.85247 1050 ft 132 kts 296°
2026-04-26 17:09 43.28649 -2.87119 719 ft 131 kts 295°
2026-04-26 17:09 43.29073 -2.88235 486 ft 131 kts 296°
2026-04-26 17:10 43.29483 -2.89348 309 ft 133 kts 294°
2026-04-26 17:10 43.29892 -2.90464 156 ft 130 kts 295°
2026-04-26 17:10 43.30256 -2.91466 124 ft 96 kts 297°
2026-04-26 17:10 43.30479 -2.92072 125 ft 50 kts 296°
2026-04-26 17:11 43.30601 -2.92396 127 ft 24 kts 299°
2026-04-26 17:11 43.30726 -2.92492 127 ft 21 kts 343°
2026-04-26 17:11 43.30803 -2.92470 127 ft 10 kts 70°
2026-04-26 17:11 43.30783 -2.92387 126 ft 10 kts 117°
2026-04-26 17:12 43.30718 -2.92209 125 ft 12 kts 116°
2026-04-26 17:12 43.30682 -2.92109 124 ft 11 kts 116°
2026-04-26 17:13 43.30597 -2.91882 128 ft 17 kts 117°
2026-04-26 17:13 43.30538 -2.91718 126 ft 22 kts 117°
2026-04-26 17:13 43.30386 -2.91306 125 ft 19 kts 117°
2026-04-26 17:14 43.30348 -2.91201 126 ft 18 kts 117°
2026-04-26 17:14 43.30350 -2.91007 127 ft 10 kts 26°
2026-04-26 17:14 43.30402 -2.90955 127 ft 9 kts 62°
2026-04-26 17:15 43.30408 -2.90820 127 ft 5 kts 88°
2026-04-26 17:15 43.30408 -2.90800 127 ft 3 kts 88°
2026-04-26 17:15 43.30408 -2.90792 127 ft 0 kts 88°
2026-04-26 17:16 43.30409 -2.90783 127 ft 1 kts 88°
2026-04-26 17:16 43.30409 -2.90781 127 ft 0 kts 88°
2026-04-26 17:16 43.30409 -2.90780 127 ft 1 kts 86°
2026-04-26 17:16 43.30413 -2.90777 123 ft 2 kts 44°
2026-04-26 17:17 43.30441 -2.90754 124 ft 5 kts 26°
2026-04-26 17:17 43.30468 -2.90736 124 ft 4 kts 26°
2026-04-26 17:17 43.30479 -2.90728 126 ft 1 kts 26°
2026-04-26 17:17 43.30480 -2.90727 126 ft 0 kts 26°
2026-04-26 17:18 43.30479 -2.90728 125 ft 0 kts 26°
2026-04-26 17:18 43.30471 -2.90733 124 ft 5 kts 26°
2026-04-26 17:18 43.30465 -2.90738 127 ft 0 kts 26°